SL-14 DEB, 45298

Orbit data source: Space-Track

SL-14 DEB, 45298 is space debris in LEO originally from a launch on Thu, 15 Aug 1991 UTC launched from the Plesetsk Missile And Space Complex (PKMTR). Debris objects in space refer to the collection of defunct objects orbiting the Earth. Examples of debris include non-operational satellites, rocket bodies, and fragments generated from explosions, collisions, or faulty payload assembly.

Loading next visibility...
Identifier
45298, 1991-056AL
Orbit
LEO
Country
Flag of CISCIS
Related business
Manufacturer
Unknown
Mission
Spacecraft
Bus & Motor
Unknown
Mass
Unknown
Launch date (UTC)
1991-08-15 (34 years ago)
Launch vehicle
Unknown
Launch site
Plesetsk Missile And Space Complex (PKMTR)
Object type
Payload
Rocket body
Debris
Shape & HBR
Unknown shape, 0.3 m
Radar Cross Section
Medium (>0.1 m² and <1 m²)

Expand to show TLE details & history
Last TLE update: 7 hours ago

TLE from 7 hours ago
0 SL-14 DEB
1 45298U 91056AL  26035.72102265  .00008713  00000-0  10098-1 0  9998
2 45298  82.5887 136.2731 0131466  52.2661 309.0317 13.65222268293851
Epoch: 2026-02-04T17:18Z
TLE epoch observation values (Epoch: 2026-02-04T17:18:16.356Z)
Latitude
-0.00005°
Longitude
101.8214°
Altitude
959.197 km
Speed
7.402 km/s
True Right ascension
09h 05m 05s
True Declination
0° 00' 00"
Sunlit
Object was in full shadow at epoch
Visualization orbit readout
Latitude
Unknown
Longitude
Unknown
Altitude
Unknown
Speed
Unknown
Apparent Right ascension
Unknown
Apparent Declination
Unknown
Sunlit
N/A
Visualization observer readout
Local Sidereal Time
02:26:58
Azimuth
Unknown
Elevation
Unknown
Doppler factor
Unknown
Orbital elements
Apogee altitude
1,111.13 km
Perigee altitude
916.768 km
Semi-major axis
7,392.086 km
Eccentricity
0.01315
Inclination
82.5887°
RAAN
136.2731°
Arg. of periapsis
52.2661°
True anomaly
307.84931°
Mean anomaly
309.0317°
Eccentric anomaly
308.44173°
Mean motion
3.41502 °/min
Orbital period
105.42 mins
BSTAR
0.010098
Loading maneuver chart data...
Computing Atmospheric mass density...
Loading historical data...
Loading historical data...
Loading historical data...
Loading historical data...
Loading historical data...
Loading historical data...
Loading historical data...

Documentation

Showing up to 5 results
|